[[{"header":{"parameterUnit":"m.s-1","parameterCategory":2,"la1":30.2991,"la2":30.254,"lo1":-89.0895,"lo2":-89.0444,"dy":0.0017,"dx":0.0017,"nx":28,"ny":28,"refTime":"2024-08-28T03:00:00:Z","depth":"0","parameterNumber":2,"parameterNumberName":"U-component_of_CURRENTS"},"data":[0,0,0,0,0,0,0,0,0,0,0,0,0,0,0,0,0,0,0,0,0,0,0,0,0,0,0,0,0,0,0,0,0,0,0,0,0,0,0,0,0,0,0,0,0,0,0,0,0,0,0,0,0,0,0,0,0,0,-0.2869,-0.2868,0,-0.2745,-0.2744,-0.2743,-0.2643,-0.2642,-0.2641,-0.2639,-0.2583,-0.2583,-0.2583,0,0,0,0,0,0,0,0,0,0,0,0,0,-0.2866,-0.2868,-0.287,-0.2868,-0.2866,-0.2745,-0.2744,-0.2743,-0.2644,-0.2642,-0.264,-0.2639,-0.2583,-0.2583,-0.2583,0,0,0,0,0,0,0,0,0,0,0,0,0,-0.2822,-0.2869,-0.287,-0.2798,-0.279,-0.2746,-0.2744,-0.2743,-0.2644,-0.2642,-0.264,-0.2638,-0.2583,-0.2583,-0.2583,-0.2624,0,0,-0.2582,-0.2582,0,0,0,0,0,0,0,0,-0.2825,-0.2823,-0.2811,-0.2803,-0.2794,-0.2704,-0.2722,-0.2705,-0.2645,-0.2704,-0.2639,-0.2637,-0.2628,-0.2624,-0.2611,-0.2621,-0.2619,-0.2582,-0.2582,-0.2582,-0.2582,0,0,0,0,0,0,0,-0.2828,-0.2827,-0.2825,-0.2809,-0.2798,-0.2719,-0.2712,-0.2717,-0.2685,-0.2699,-0.269,-0.267,-0.2625,-0.2612,-0.2609,-0.2618,-0.2582,-0.2582,-0.2582,-0.2581,-0.2596,-0.2596,0,0,0,0,0,0,-0.2846,-0.2831,-0.2829,-0.2821,-0.2799,-0.2721,-0.2714,-0.2739,-0.2683,-0.267,-0.2672,-0.2666,-0.2613,-0.261,-0.2607,-0.2589,-0.2582,-0.2581,-0.2581,-0.2595,-0.2596,-0.2597,0,0,0,0,0,0,-0.2847,-0.2849,-0.2834,-0.2816,-0.2808,-0.2724,-0.2752,-0.2737,-0.2716,-0.2661,-0.265,-0.2665,-0.2611,-0.2607,-0.2602,-0.2588,-0.2581,-0.2581,-0.2595,-0.2596,-0.2596,-0.2594,0,0,0,0,0,0,-0.2848,-0.2851,-0.287,-0.2819,-0.2809,-0.2814,-0.2753,-0.2736,-0.2705,-0.2696,-0.2652,-0.2644,-0.2609,-0.2603,-0.2602,-0.2588,-0.2581,-0.2594,-0.2595,-0.2596,-0.2594,-0.2595,-0.2596,0,0,0,0,0,-0.285,-0.2886,-0.2873,-0.2871,-0.2842,-0.2815,-0.2804,-0.2737,-0.2707,-0.271,-0.2671,-0.2645,-0.2608,-0.2604,-0.2602,-0.2588,-0.2594,-0.2595,-0.2596,-0.2593,-0.2595,-0.2596,0,0,0,0,0,0,-0.2867,-0.2878,-0.2862,-0.2893,-0.2858,-0.2796,-0.2785,-0.2749,-0.2721,-0.2714,-0.2662,-0.2653,-0.2635,-0.263,-0.2626,-0.2597,-0.2594,-0.2595,-0.2592,-0.2594,-0.2595,-0.259,-0.2581,0,0,0,0,0,-0.289,-0.2935,-0.2904,-0.2921,-0.2916,-0.2857,-0.2835,-0.28,-0.2763,-0.2747,-0.2706,-0.2673,-0.2643,-0.2634,-0.2612,-0.2616,-0.2607,-0.2605,-0.2606,-0.2607,-0.2604,-0.2598,-0.2598,-0.2601,-0.2601,-0.2601,0,0,-0.2889,-0.2904,-0.292,-0.2929,-0.2899,-0.287,-0.284,-0.2823,-0.2777,-0.2752,-0.2694,-0.268,-0.2646,-0.2624,-0.2617,-0.2616,-0.26,-0.2609,-0.2609,-0.2606,-0.2599,-0.2599,-0.2598,-0.2601,-0.2601,-0.2601,0,0,-0.2908,-0.294,-0.2975,-0.2954,-0.293,-0.2895,-0.2896,-0.2848,-0.2811,-0.2782,-0.2731,-0.2719,-0.2681,-0.2641,-0.2619,-0.2629,-0.2605,-0.2622,-0.2624,-0.2618,-0.2617,-0.2617,-0.2594,-0.2592,-0.2625,-0.2625,-0.2625,0,-0.2894,-0.2928,-0.2969,-0.297,-0.292,-0.2907,-0.2871,-0.2848,-0.2792,-0.2774,-0.2766,-0.2706,-0.2682,-0.2637,-0.2625,-0.2628,-0.2618,-0.2616,-0.2618,-0.2617,-0.2617,-0.2594,-0.2591,-0.2625,-0.2625,-0.2625,-0.2625,0,-0.2924,-0.2921,-0.2932,-0.293,-0.2905,-0.2874,-0.2838,-0.2826,-0.2793,-0.2762,-0.2733,-0.2709,-0.2674,-0.2663,-0.264,-0.2617,-0.2609,-0.2617,-0.261,-0.2616,-0.2592,-0.2589,-0.2625,-0.2625,-0.2625,-0.2625,0,0,-0.2912,-0.2946,-0.2935,-0.2895,-0.2865,-0.2836,-0.2806,-0.2761,-0.2745,-0.2725,-0.2692,-0.2651,-0.2666,-0.2643,-0.2625,-0.262,-0.26,-0.2616,-0.2616,-0.2586,-0.2574,-0.2485,-0.2473,-0.2609,-0.2608,-0.2608,-0.2555,0,-0.2878,-0.2876,-0.2896,-0.2813,-0.277,-0.2754,-0.2723,-0.2701,-0.2693,-0.2682,-0.2681,-0.2656,-0.2648,-0.2642,-0.2635,-0.2612,-0.2594,-0.2613,-0.258,-0.2579,-0.2493,-0.2467,-0.235,-0.2286,-0.2552,-0.2552,-0.2551,0,-0.2876,-0.2845,-0.2798,-0.2728,-0.2713,-0.2673,-0.2622,-0.26,-0.2621,-0.2632,-0.2644,-0.2653,-0.2635,-0.2641,-0.2603,-0.2617,-0.2589,-0.2577,-0.2575,-0.249,-0.2484,-0.2327,-0.2271,-0.2246,-0.2546,-0.2547,-0.2547,0,-0.2832,-0.2765,-0.2717,-0.2683,-0.2629,-0.2596,-0.2567,-0.2579,-0.2572,-0.2605,-0.2627,-0.2629,-0.2621,-0.2608,-0.2582,-0.2593,-0.2549,-0.2563,-0.2452,-0.2445,-0.2336,-0.232,-0.2243,-0.2529,-0.2529,-0.2529,-0.2529,0,-0.2787,-0.2728,-0.2683,-0.2645,-0.2533,-0.2539,-0.2491,-0.2492,-0.2533,-0.2537,-0.2591,-0.2596,-0.2614,-0.2599,-0.258,-0.2495,-0.2541,-0.2435,-0.2421,-0.2331,-0.2315,-0.2282,-0.232,-0.2527,-0.2527,-0.2528,-0.2528,0,-0.2756,-0.2758,-0.2647,-0.2557,-0.2522,-0.2436,-0.2408,-0.2406,-0.2466,-0.2478,-0.249,-0.2553,-0.253,-0.2532,-0.2506,-0.2465,-0.2366,-0.2374,-0.2256,-0.2228,-0.2087,-0.2129,-0.206,-0.2004,-0.2235,-0.2232,-0.223,0,-0.2742,-0.2706,-0.2566,-0.248,-0.2423,-0.2331,-0.2299,-0.2343,-0.2362,-0.2441,-0.2442,-0.2452,-0.2425,-0.2359,-0.2298,-0.2224,-0.2252,-0.2084,-0.2076,-0.2041,-0.208,-0.2124,-0.2087,-0.1934,-0.1929,-0.1925,-0.1923,0,-0.2638,-0.2619,-0.2523,-0.2352,-0.2259,-0.2185,-0.2152,-0.2163,-0.2249,-0.2274,-0.23,-0.2288,-0.224,-0.2115,-0.2035,-0.199,-0.2026,-0.2004,-0.2002,-0.1853,-0.1864,-0.1815,-0.2012,-0.189,-0.1893,-0.1896,-0.1897,-0.1899,-0.2535,-0.2428,-0.2328,-0.2144,-0.2066,-0.2011,-0.1941,-0.1981,-0.1979,-0.1991,-0.2082,-0.2022,-0.198,-0.1837,-0.1791,-0.167,-0.1765,-0.1624,-0.1683,-0.1734,-0.166,-0.177,-0.1616,-0.1617,-0.1618,-0.162,-0.1621,0,-0.235,-0.2273,-0.2121,-0.1926,-0.1818,-0.1833,-0.1814,-0.1764,-0.1721,-0.1769,-0.1747,-0.1694,-0.1568,-0.1555,-0.1453,-0.1381,-0.137,-0.1367,-0.1412,-0.1392,-0.1495,-0.1459,-0.1221,-0.1221,-0.1221,-0.1221,-0.1221,-0.1221,-0.2242,-0.2078,-0.1986,-0.1702,-0.1607,-0.1457,-0.1426,-0.1392,-0.1398,-0.1332,-0.1321,-0.1343,-0.1364,-0.145,-0.1345,-0.1274,-0.1274,-0.1223,-0.1281,-0.1371,-0.1401,-0.1429,-0.14,-0.1154,-0.1154,-0.1101,-0.1101,-0.1101]},{"header":{"parameterUnit":"m.s-1","parameterCategory":2,"la1":30.2991,"la2":30.254,"lo1":-89.0895,"lo2":-89.0444,"dy":0.0017,"dx":0.0017,"nx":28,"ny":28,"refTime":"2024-08-28T03:00:00:Z","depth":"0","parameterNumber":3,"parameterNumberName":"V-component_of_CURRENTS"},"data":[0,0,0,0,0,0,0,0,0,0,0,0,0,0,0,0,0,0,0,0,0,0,0,0,0,0,0,0,0,0,0,0,0,0,0,0,0,0,0,0,0,0,0,0,0,0,0,0,0,0,0,0,0,0,0,0,0,0,-0.0043,-0.0041,0,0.0083,0.0084,0.0085,0.0124,0.0123,0.0123,0.0123,0.0262,0.0266,0.027,0,0,0,0,0,0,0,0,0,0,0,0,0,-0.028,-0.0276,-0.0043,-0.0041,-0.004,0.0082,0.0084,0.0086,0.0124,0.0123,0.0123,0.0122,0.026,0.0265,0.027,0,0,0,0,0,0,0,0,0,0,0,0,0,-0.0169,-0.0274,-0.0043,-0.0005,0.0,0.0082,0.0084,0.0086,0.0124,0.0123,0.0123,0.0122,0.0259,0.0265,0.0271,0.0323,0,0,0.029,0.0293,0,0,0,0,0,0,0,0,-0.0176,-0.0161,-0.0012,-0.0007,-0.0001,0.0088,0.0052,0.0167,0.0124,0.0075,0.0123,0.0122,0.0207,0.0217,0.024,0.033,0.0336,0.029,0.0294,0.0297,0.0299,0,0,0,0,0,0,0,-0.0183,-0.0166,0.0005,-0.001,-0.0004,-0.0004,0.0011,0.0073,0.0142,0.008,0.0083,0.01,0.0209,0.0234,0.0243,0.0338,0.029,0.0296,0.03,0.0302,0.0403,0.0402,0,0,0,0,0,0,-0.0192,-0.0173,0.0001,0.0009,-0.009,0.0001,0.0018,0.0059,0.0142,0.0154,0.01,0.0101,0.0223,0.0236,0.0248,0.0255,0.0297,0.0303,0.0306,0.0404,0.0403,0.0402,0,0,0,0,0,0,-0.0197,-0.0177,-0.0004,-0.008,-0.0058,0.0007,0.0052,0.0062,0.0082,0.0158,0.0169,0.0109,0.0223,0.024,0.0283,0.0263,0.0305,0.0311,0.0405,0.0404,0.0402,0.0307,0,0,0,0,0,0,-0.0204,-0.0179,-0.017,-0.0079,-0.0053,0.003,0.0053,0.0065,0.0095,0.0097,0.017,0.0182,0.0224,0.0273,0.0289,0.0272,0.0316,0.0407,0.0405,0.0403,0.0312,0.0303,0.0295,0,0,0,0,0,-0.0213,-0.0204,-0.017,-0.015,-0.0037,0.003,0.0042,0.0083,0.0095,0.0099,0.0141,0.018,0.0271,0.0278,0.0296,0.0281,0.0408,0.0405,0.0403,0.0316,0.0304,0.0295,0,0,0,0,0,0,-0.0317,-0.0196,-0.0158,-0.0115,-0.0051,0.0036,0.0044,0.008,0.0119,0.0119,0.0183,0.0198,0.022,0.0268,0.0274,0.0301,0.034,0.0341,0.0267,0.0257,0.0249,0.0238,0.0321,0,0,0,0,0,-0.0328,-0.0286,-0.0176,-0.015,-0.011,-0.0031,-0.0004,0.0033,0.0088,0.0104,0.0153,0.0197,0.0228,0.0256,0.0293,0.0329,0.0374,0.0325,0.0316,0.0309,0.0311,0.0359,0.0356,0.0394,0.0394,0.0394,0,0,-0.0368,-0.0294,-0.0275,-0.0169,-0.0111,-0.0076,-0.0017,0.0028,0.0036,0.0116,0.013,0.0174,0.0229,0.0248,0.0263,0.0287,0.0318,0.0306,0.0299,0.0305,0.0356,0.0353,0.035,0.0393,0.0393,0.0393,0,0,-0.0421,-0.0346,-0.0323,-0.0264,-0.0171,-0.0121,-0.011,-0.0018,0.0002,0.0038,0.0077,0.0111,0.0174,0.0203,0.0226,0.0202,0.0266,0.0207,0.0168,0.0214,0.0212,0.021,0.0248,0.0251,0.021,0.0209,0.0209,0,-0.0476,-0.0414,-0.0316,-0.0275,-0.0243,-0.0146,-0.0129,-0.0091,-0.0013,0.0004,0.0024,0.0101,0.0149,0.0171,0.0153,0.0183,0.022,0.0201,0.0204,0.0203,0.0203,0.0243,0.0247,0.0205,0.0205,0.0206,0.0206,0,-0.0505,-0.0452,-0.0435,-0.0348,-0.031,-0.0276,-0.0197,-0.0172,-0.0134,-0.009,-0.0056,0.0012,0.006,0.0071,0.0108,0.0124,0.0152,0.0181,0.0229,0.0194,0.0238,0.0244,0.0198,0.0199,0.0201,0.0202,0,0,-0.0609,-0.0481,-0.0471,-0.0438,-0.034,-0.031,-0.0296,-0.0243,-0.0236,-0.0172,-0.0157,-0.0103,-0.0051,-0.0021,0.0032,0.0076,0.0102,0.0125,0.013,0.0161,0.0201,0.0254,0.0267,0.0134,0.0135,0.0136,0.0226,0,-0.0654,-0.0604,-0.0533,-0.0511,-0.0473,-0.0393,-0.0389,-0.034,-0.0292,-0.0257,-0.018,-0.0147,-0.0091,-0.0066,-0.0017,0.0078,0.0116,0.0075,0.0232,0.0236,0.0288,0.0275,0.0318,0.0406,0.0233,0.0234,0.0235,0,-0.0696,-0.0646,-0.063,-0.0559,-0.0539,-0.0534,-0.0496,-0.0477,-0.0406,-0.0366,-0.0306,-0.0236,-0.0163,-0.0113,0.003,0.0003,0.0088,0.0161,0.0167,0.0259,0.0302,0.0417,0.0424,0.0583,0.0245,0.0244,0.0243,0,-0.0804,-0.0717,-0.0714,-0.0686,-0.0601,-0.0602,-0.0574,-0.0515,-0.0499,-0.043,-0.0403,-0.0303,-0.0245,-0.0126,0.0036,0.0032,0.02,0.0217,0.034,0.0345,0.0435,0.0447,0.0618,0.0305,0.0305,0.0304,0.0304,0,-0.0875,-0.0862,-0.0759,-0.0755,-0.0755,-0.0678,-0.0688,-0.0644,-0.0589,-0.057,-0.0465,-0.0417,-0.0244,-0.0119,0.0017,0.0208,0.0189,0.0336,0.0376,0.0401,0.0408,0.0595,0.065,0.0308,0.0307,0.0306,0.0306,0,-0.0989,-0.0924,-0.0899,-0.0819,-0.0801,-0.0803,-0.0753,-0.0752,-0.0692,-0.0662,-0.0642,-0.0498,-0.0323,-0.0141,0.0067,0.0188,0.0464,0.0426,0.0442,0.0482,0.0739,0.0785,0.0975,0.1077,0.0572,0.0574,0.0575,0,-0.1042,-0.1041,-0.096,-0.0944,-0.0909,-0.089,-0.088,-0.0817,-0.0807,-0.0702,-0.0691,-0.0522,-0.0375,-0.0045,0.0201,0.0453,0.0559,0.0618,0.062,0.0768,0.0849,0.0866,0.094,0.0696,0.0699,0.0701,0.0702,0,-0.1136,-0.1108,-0.1078,-0.1031,-0.1014,-0.1,-0.0975,-0.0981,-0.0904,-0.0846,-0.0725,-0.0596,-0.0264,0.0066,0.0387,0.053,0.0744,0.0667,0.0826,0.0968,0.0994,0.1106,0.0613,0.0721,0.0719,0.0717,0.0716,0.0716,-0.1198,-0.1193,-0.1141,-0.1098,-0.1084,-0.1084,-0.1077,-0.1038,-0.0995,-0.0864,-0.0744,-0.0485,-0.0041,0.0438,0.0612,0.0977,0.0918,0.1075,0.112,0.1124,0.1229,0.0771,0.0919,0.0919,0.0918,0.0918,0.0917,0,-0.1253,-0.123,-0.1203,-0.1151,-0.1146,-0.112,-0.1112,-0.1076,-0.1005,-0.0829,-0.0655,-0.0119,0.0321,0.0724,0.1222,0.1422,0.146,0.1504,0.1549,0.1605,0.1217,0.1231,0.1447,0.1447,0.1447,0.1447,0.1446,0.1446,-0.1271,-0.1264,-0.1226,-0.1194,-0.117,-0.1154,-0.1144,-0.1066,-0.0932,-0.0593,-0.0263,0.001,0.0583,0.133,0.1788,0.1822,0.2003,0.1965,0.2065,0.1805,0.1769,0.1733,0.1763,0.2087,0.2088,0.2448,0.2452,0.2455]}],[{"header":{"parameterUnit":"m.s-1","parameterCategory":2,"la1":30.2991,"la2":30.254,"lo1":-89.0895,"lo2":-89.0444,"dy":0.0017,"dx":0.0017,"nx":28,"ny":28,"refTime":"2024-08-28T03:00:00:Z","depth":"2","parameterNumber":2,"parameterNumberName":"U-component_of_CURRENTS"},"data":[0,0,0,0,0,0,0,0,0,0,0,0,0,0,0,0,0,0,0,0,0,0,0,0,0,0,0,0,0,0,0,0,0,0,0,0,0,0,0,0,0,0,0,0,0,0,0,0,0,0,0,0,0,0,0,0,0,0,-0.2053,-0.2055,0,-0.2149,-0.2149,-0.215,-0.2164,-0.2164,-0.2164,-0.2164,-0.2173,-0.2174,-0.2174,0,0,0,0,0,0,0,0,0,0,0,0,0,-0.184,-0.1843,-0.2053,-0.2055,-0.2057,-0.2149,-0.2149,-0.215,-0.2164,-0.2164,-0.2164,-0.2164,-0.2173,-0.2174,-0.2174,0,0,0,0,0,0,0,0,0,0,0,0,0,-0.1924,-0.1844,-0.2052,-0.2083,-0.2087,-0.2149,-0.2149,-0.215,-0.2164,-0.2164,-0.2164,-0.2164,-0.2173,-0.2174,-0.2174,-0.2173,0,0,-0.2175,-0.2175,0,0,0,0,0,0,0,0,-0.1919,-0.193,-0.2076,-0.2081,-0.2086,-0.2154,-0.2079,-0.2157,-0.2164,-0.2123,-0.2164,-0.2164,-0.2166,-0.2167,-0.217,-0.2173,-0.2174,-0.2175,-0.2175,-0.2175,-0.2175,0,0,0,0,0,0,0,-0.1913,-0.1926,-0.208,-0.2079,-0.2085,-0.2079,-0.209,-0.2093,-0.2133,-0.2127,-0.2131,-0.2158,-0.2166,-0.217,-0.2171,-0.2174,-0.2175,-0.2175,-0.2175,-0.2175,-0.2234,-0.2236,0,0,0,0,0,0,-0.1926,-0.1921,-0.2077,-0.2084,-0.2013,-0.2083,-0.2095,-0.2123,-0.2135,-0.2141,-0.2158,-0.2159,-0.217,-0.217,-0.2171,-0.2207,-0.2175,-0.2175,-0.2175,-0.2233,-0.2235,-0.2236,0,0,0,0,0,0,-0.1921,-0.1938,-0.2074,-0.2013,-0.2031,-0.2088,-0.2119,-0.2125,-0.2138,-0.2162,-0.2163,-0.2167,-0.217,-0.2171,-0.2195,-0.2206,-0.2175,-0.2175,-0.2231,-0.2233,-0.2235,-0.2256,0,0,0,0,0,0,-0.1914,-0.1936,-0.1955,-0.2014,-0.2035,-0.2116,-0.212,-0.2128,-0.216,-0.2161,-0.2169,-0.217,-0.217,-0.2195,-0.2195,-0.2206,-0.2176,-0.2229,-0.2232,-0.2235,-0.2253,-0.2258,-0.2262,0,0,0,0,0,-0.1906,-0.1931,-0.1955,-0.1975,-0.2062,-0.2118,-0.2127,-0.216,-0.216,-0.2169,-0.2184,-0.217,-0.2212,-0.2196,-0.2196,-0.2207,-0.2228,-0.2231,-0.2234,-0.2251,-0.2257,-0.2262,0,0,0,0,0,0,-0.1862,-0.1938,-0.1965,-0.2017,-0.207,-0.2125,-0.2149,-0.2163,-0.2181,-0.2186,-0.2186,-0.2188,-0.2213,-0.2213,-0.2196,-0.2236,-0.2218,-0.2222,-0.2231,-0.2237,-0.2241,-0.2234,-0.2176,0,0,0,0,0,-0.1863,-0.1887,-0.1971,-0.2009,-0.2045,-0.2095,-0.2122,-0.2147,-0.218,-0.2188,-0.2194,-0.2208,-0.2225,-0.2233,-0.2245,-0.2264,-0.2249,-0.2274,-0.2279,-0.2283,-0.228,-0.2278,-0.2282,-0.2247,-0.2246,-0.2246,0,0,-0.1845,-0.1903,-0.191,-0.1999,-0.2046,-0.21,-0.2108,-0.2161,-0.219,-0.2185,-0.2214,-0.2222,-0.2235,-0.2261,-0.2272,-0.2263,-0.2285,-0.2287,-0.229,-0.2284,-0.2282,-0.2285,-0.2288,-0.2249,-0.2248,-0.2248,0,0,-0.1841,-0.1894,-0.1919,-0.1979,-0.2069,-0.2102,-0.2119,-0.2182,-0.2196,-0.2234,-0.2238,-0.2257,-0.228,-0.2291,-0.23,-0.2338,-0.2308,-0.2343,-0.2359,-0.2358,-0.236,-0.2362,-0.2338,-0.2337,-0.2346,-0.2346,-0.2346,0,-0.1823,-0.189,-0.1934,-0.2002,-0.2055,-0.2105,-0.2158,-0.2184,-0.2236,-0.2248,-0.225,-0.2288,-0.2295,-0.2324,-0.2341,-0.2346,-0.2332,-0.2333,-0.2361,-0.2363,-0.2364,-0.2339,-0.2338,-0.2348,-0.2348,-0.2347,-0.2347,0,-0.1846,-0.192,-0.1951,-0.2044,-0.209,-0.2152,-0.2215,-0.224,-0.2262,-0.2285,-0.2317,-0.2331,-0.2349,-0.2359,-0.2362,-0.238,-0.2362,-0.2364,-0.234,-0.2368,-0.2341,-0.2339,-0.235,-0.2349,-0.2349,-0.2349,0,0,-0.1774,-0.193,-0.1949,-0.201,-0.2129,-0.2165,-0.222,-0.2278,-0.2301,-0.2336,-0.2358,-0.2389,-0.2385,-0.2396,-0.2397,-0.24,-0.2396,-0.2387,-0.2386,-0.235,-0.2374,-0.2283,-0.2272,-0.24,-0.24,-0.24,-0.2347,0,-0.1793,-0.191,-0.1978,-0.2078,-0.2152,-0.222,-0.2259,-0.2308,-0.2341,-0.2369,-0.2386,-0.2407,-0.2404,-0.2409,-0.2413,-0.2405,-0.2395,-0.2409,-0.2364,-0.2362,-0.2266,-0.2268,-0.2101,-0.2032,-0.2345,-0.2345,-0.2345,0,-0.1805,-0.1895,-0.1993,-0.212,-0.2153,-0.2194,-0.2265,-0.2309,-0.2362,-0.2386,-0.2412,-0.2424,-0.2438,-0.2428,-0.2416,-0.2424,-0.2397,-0.2385,-0.2383,-0.2288,-0.2267,-0.2058,-0.2017,-0.2342,-0.2342,-0.2342,-0.2343,0,-0.1734,-0.1901,-0.1972,-0.2027,-0.2166,-0.2193,-0.2238,-0.2302,-0.2332,-0.2386,-0.2404,-0.2432,-0.2431,-0.2423,-0.24,-0.2408,-0.2373,-0.2381,-0.2269,-0.2262,-0.2104,-0.2082,-0.2359,-0.2359,-0.2359,-0.2359,-0.2359,0,-0.173,-0.1799,-0.1947,-0.1988,-0.2055,-0.2154,-0.2192,-0.2245,-0.2309,-0.2334,-0.2393,-0.2404,-0.2429,-0.2418,-0.2399,-0.2319,-0.2368,-0.226,-0.2241,-0.2106,-0.2086,-0.2348,-0.2348,-0.2357,-0.2358,-0.2358,-0.2358,0,-0.1647,-0.1756,-0.1852,-0.1991,-0.2025,-0.2063,-0.2154,-0.2179,-0.2254,-0.2287,-0.2302,-0.2369,-0.2349,-0.2354,-0.2333,-0.2292,-0.2247,-0.2204,-0.2032,-0.1993,-0.2135,-0.2137,-0.2071,-0.2067,-0.2064,-0.2061,-0.2059,0,-0.1608,-0.165,-0.1807,-0.1855,-0.1918,-0.199,-0.2025,-0.2125,-0.2159,-0.2253,-0.2258,-0.2272,-0.2245,-0.2183,-0.212,-0.2046,-0.2143,-0.1861,-0.1846,-0.2116,-0.2105,-0.2112,-0.2118,-0.1644,-0.1638,-0.1634,-0.163,0,-0.1525,-0.1584,-0.1671,-0.1761,-0.182,-0.1878,-0.1941,-0.1962,-0.2073,-0.2097,-0.212,-0.2106,-0.2055,-0.1901,-0.1821,-0.1772,-0.1864,-0.1766,-0.2088,-0.1746,-0.171,-0.1701,-0.1721,-0.1591,-0.1595,-0.1598,-0.16,-0.1601,-0.1448,-0.1495,-0.1591,-0.1669,-0.1728,-0.1744,-0.1729,-0.18,-0.1814,-0.1822,-0.1907,-0.1821,-0.1818,-0.1586,-0.1503,-0.1445,-0.1578,-0.1522,-0.1538,-0.1557,-0.1521,-0.1482,-0.1311,-0.1314,-0.1316,-0.1317,-0.1319,0,-0.1376,-0.1432,-0.1478,-0.1563,-0.1555,-0.1619,-0.1651,-0.161,-0.157,-0.1595,-0.1564,-0.1394,-0.1274,-0.1281,-0.111,-0.108,-0.1091,-0.1052,-0.1065,-0.1104,-0.1139,-0.1084,-0.0757,-0.0756,-0.0754,-0.0753,0,0,-0.1345,-0.1364,-0.139,-0.1358,-0.1395,-0.1327,-0.1308,-0.1267,-0.1254,-0.1169,-0.1118,-0.118,-0.1223,-0.0983,-0.0931,-0.081,-0.0952,-0.0771,-0.1219,-0.1273,-0.1306,-0.1405,-0.1362,0,0,0,0,0]},{"header":{"parameterUnit":"m.s-1","parameterCategory":2,"la1":30.2991,"la2":30.254,"lo1":-89.0895,"lo2":-89.0444,"dy":0.0017,"dx":0.0017,"nx":28,"ny":28,"refTime":"2024-08-28T03:00:00:Z","depth":"2","parameterNumber":3,"parameterNumberName":"V-component_of_CURRENTS"},"data":[0,0,0,0,0,0,0,0,0,0,0,0,0,0,0,0,0,0,0,0,0,0,0,0,0,0,0,0,0,0,0,0,0,0,0,0,0,0,0,0,0,0,0,0,0,0,0,0,0,0,0,0,0,0,0,0,0,0,-0.0203,-0.0202,0,-0.0108,-0.0107,-0.0106,-0.0041,-0.0041,-0.004,-0.004,0.0094,0.0097,0.01,0,0,0,0,0,0,0,0,0,0,0,0,0,-0.0221,-0.0222,-0.0203,-0.0202,-0.02,-0.0108,-0.0107,-0.0105,-0.0041,-0.0041,-0.004,-0.004,0.0093,0.0097,0.0101,0,0,0,0,0,0,0,0,0,0,0,0,0,-0.0178,-0.0222,-0.0203,-0.0157,-0.0152,-0.0108,-0.0107,-0.0105,-0.0041,-0.0041,-0.004,-0.004,0.0092,0.0096,0.0101,0.0117,0,0,0.0116,0.0118,0,0,0,0,0,0,0,0,-0.0181,-0.0178,-0.0165,-0.0161,-0.0155,-0.0086,-0.0064,-0.0029,-0.0042,-0.0083,-0.004,-0.0039,0.0037,0.0046,0.0062,0.0124,0.0129,0.0116,0.0119,0.0121,0.0122,0,0,0,0,0,0,0,-0.0184,-0.0181,-0.0165,-0.0164,-0.0158,-0.0105,-0.0099,-0.0056,-0.0027,-0.008,-0.0075,-0.0065,0.004,0.0058,0.0066,0.0131,0.0116,0.012,0.0123,0.0125,0.0226,0.0226,0,0,0,0,0,0,-0.0203,-0.0185,-0.0168,-0.0162,-0.0167,-0.0106,-0.0099,-0.0108,-0.0028,-0.0016,-0.0066,-0.0062,0.0049,0.0061,0.0071,0.0099,0.0121,0.0125,0.0128,0.0226,0.0226,0.0226,0,0,0,0,0,0,-0.0204,-0.0203,-0.0172,-0.017,-0.0162,-0.0107,-0.0117,-0.0107,-0.0087,-0.0018,-0.0005,-0.0056,0.005,0.0065,0.0107,0.0105,0.0128,0.0132,0.0226,0.0226,0.0226,0.0154,0,0,0,0,0,0,-0.0205,-0.0205,-0.0215,-0.0172,-0.0163,-0.0155,-0.0118,-0.0106,-0.0082,-0.0076,-0.0005,0.0008,0.0052,0.01,0.0112,0.0112,0.0136,0.0226,0.0226,0.0226,0.0156,0.0151,0.0146,0,0,0,0,0,-0.0207,-0.0226,-0.0217,-0.0214,-0.0181,-0.0156,-0.0146,-0.0103,-0.0082,-0.0081,-0.003,0.0006,0.0107,0.0103,0.0118,0.0119,0.0227,0.0226,0.0226,0.0158,0.0152,0.0146,0,0,0,0,0,0,-0.0235,-0.022,-0.0209,-0.0222,-0.0196,-0.0145,-0.0137,-0.0109,-0.0067,-0.0059,0.0005,0.0022,0.0056,0.0097,0.0092,0.0147,0.0172,0.0174,0.0116,0.011,0.0105,0.0094,0.014,0,0,0,0,0,-0.025,-0.0262,-0.0233,-0.0242,-0.0234,-0.0187,-0.017,-0.0142,-0.01,-0.0081,-0.0032,0.0022,0.0065,0.0094,0.0136,0.0169,0.0206,0.0179,0.0174,0.0169,0.0169,0.0219,0.0218,0.0224,0.0224,0.0224,0,0,-0.0262,-0.0255,-0.026,-0.0248,-0.0224,-0.0216,-0.0175,-0.0156,-0.0141,-0.0073,-0.0039,0.0004,0.0068,0.0102,0.0122,0.0138,0.0185,0.0169,0.0164,0.0167,0.0219,0.0218,0.0217,0.0224,0.0224,0.0224,0,0,-0.0295,-0.0289,-0.0312,-0.0293,-0.0267,-0.0237,-0.0236,-0.0192,-0.0166,-0.0132,-0.0081,-0.0039,0.0029,0.0073,0.0105,0.01,0.0152,0.0112,0.0087,0.0134,0.0134,0.0134,0.0169,0.0173,0.0116,0.0116,0.0116,0,-0.0308,-0.0335,-0.0311,-0.032,-0.0305,-0.0253,-0.026,-0.0226,-0.0171,-0.0151,-0.0131,-0.0035,0.0016,0.0065,0.0063,0.0089,0.012,0.0101,0.0127,0.0128,0.013,0.0166,0.0171,0.0112,0.0113,0.0113,0.0113,0,-0.0354,-0.0368,-0.0376,-0.0374,-0.0355,-0.035,-0.0304,-0.0282,-0.0243,-0.0205,-0.0157,-0.0088,-0.003,-0.0009,0.0029,0.0065,0.0084,0.0108,0.0138,0.0125,0.0164,0.0171,0.0107,0.0108,0.0109,0.011,0,0,-0.0396,-0.041,-0.0411,-0.0419,-0.0382,-0.0373,-0.0349,-0.0315,-0.03,-0.0241,-0.0216,-0.014,-0.0103,-0.0064,-0.0011,0.0036,0.0071,0.0073,0.0077,0.0101,0.0168,0.0204,0.0216,0.0099,0.01,0.0101,0.0186,0,-0.0437,-0.0484,-0.0465,-0.0481,-0.0496,-0.0437,-0.042,-0.0377,-0.033,-0.0292,-0.0215,-0.0173,-0.0122,-0.0098,-0.0044,0.0046,0.0088,0.0045,0.0184,0.0188,0.0217,0.0225,0.0201,0.0277,0.0193,0.0195,0.0196,0,-0.0488,-0.051,-0.0554,-0.0546,-0.0544,-0.0537,-0.0498,-0.0474,-0.0404,-0.0367,-0.0307,-0.0244,-0.0164,-0.0125,0.0019,-0.0011,0.0068,0.0136,0.0142,0.0208,0.0239,0.0281,0.0294,0.0208,0.0207,0.0206,0.0205,0,-0.0544,-0.0564,-0.0607,-0.0602,-0.0587,-0.0584,-0.0562,-0.0503,-0.0486,-0.0416,-0.0393,-0.029,-0.0235,-0.0121,0.0027,0.0022,0.0184,0.0198,0.0302,0.0305,0.0329,0.0333,0.0289,0.0289,0.0289,0.0288,0.0288,0,-0.0597,-0.0624,-0.064,-0.0659,-0.0686,-0.0646,-0.065,-0.0613,-0.0561,-0.0541,-0.0441,-0.0396,-0.0231,-0.0114,0.0012,0.0186,0.0176,0.0302,0.0335,0.0303,0.0303,0.0282,0.0279,0.0292,0.0291,0.029,0.029,0,-0.0656,-0.0672,-0.0718,-0.0722,-0.0722,-0.0741,-0.0715,-0.0713,-0.0656,-0.0625,-0.0606,-0.047,-0.0308,-0.0138,0.0059,0.0168,0.0327,0.0385,0.0333,0.0358,0.0414,0.0407,0.0507,0.0509,0.0511,0.0512,0.0513,0,-0.0689,-0.0727,-0.0773,-0.0801,-0.0807,-0.082,-0.0825,-0.0773,-0.0762,-0.0663,-0.065,-0.0494,-0.0361,-0.0058,0.0159,0.0387,0.038,0.0482,0.0475,0.0417,0.0439,0.043,0.0421,0.0472,0.0473,0.0474,0.0474,0,-0.0741,-0.0771,-0.0816,-0.0879,-0.0905,-0.0923,-0.092,-0.0924,-0.0853,-0.0796,-0.0683,-0.0566,-0.0273,-0.0007,0.0279,0.04,0.0446,0.0504,0.0471,0.0421,0.0393,0.0411,0.0403,0.048,0.048,0.0479,0.0479,0.0479,-0.0772,-0.0833,-0.0899,-0.0952,-0.0984,-0.1006,-0.1009,-0.0979,-0.0939,-0.0815,-0.0705,-0.048,-0.0251,0.0186,0.0372,0.054,0.0534,0.0574,0.0569,0.0564,0.0545,0.0521,0.0629,0.0629,0.0629,0.0629,0.063,0,-0.0823,-0.0896,-0.0952,-0.1021,-0.1054,-0.105,-0.1052,-0.1019,-0.0951,-0.0793,-0.0633,-0.0341,-0.0043,0.0193,0.0477,0.0636,0.0604,0.0644,0.0577,0.057,0.0565,0.0543,0.0628,0.0629,0.0629,0.0629,0,0,-0.0851,-0.0943,-0.098,-0.1054,-0.1089,-0.1103,-0.1095,-0.102,-0.0898,-0.0715,-0.0522,-0.0283,-0.0003,0.0199,0.0384,0.0524,0.0501,0.0524,0.0508,0.04,0.0393,0.0509,0.0466,0,0,0,0,0]}],[{"header":{"parameterUnit":"m.s-1","parameterCategory":2,"la1":30.2991,"la2":30.254,"lo1":-89.0895,"lo2":-89.0444,"dy":0.0017,"dx":0.0017,"nx":28,"ny":28,"refTime":"2024-08-28T03:00:00:Z","depth":"4","parameterNumber":2,"parameterNumberName":"U-component_of_CURRENTS"},"data":[0,0,0,0,0,0,0,0,0,0,0,0,0,0,0,0,0,0,0,0,0,0,0,0,0,0,0,0,0,0,0,0,0,0,0,0,0,0,0,0,0,0,0,0,0,0,0,0,0,0,0,0,0,0,0,0,0,0,-0.1329,-0.1331,0,-0.1439,-0.144,-0.1441,-0.1534,-0.1535,-0.1536,-0.1537,-0.1631,-0.1633,-0.1634,0,0,0,0,0,0,0,0,0,0,0,0,0,-0.1191,-0.1193,-0.1329,-0.1331,-0.1332,-0.1439,-0.144,-0.1442,-0.1534,-0.1535,-0.1536,-0.1538,-0.1631,-0.1632,-0.1634,0,0,0,0,0,0,0,0,0,0,0,0,0,-0.127,-0.1194,-0.1329,-0.1392,-0.1398,-0.1438,-0.144,-0.1442,-0.1533,-0.1535,-0.1537,-0.1538,-0.163,-0.1632,-0.1634,-0.1616,0,0,-0.1641,-0.1642,0,0,0,0,0,0,0,0,-0.1266,-0.1275,-0.1381,-0.1387,-0.1395,-0.1475,-0.1426,-0.15,-0.1533,-0.1481,-0.1537,-0.1539,-0.1577,-0.1584,-0.16,-0.162,-0.1624,-0.1642,-0.1643,-0.1644,-0.1644,0,0,0,0,0,0,0,-0.126,-0.1271,-0.1372,-0.1382,-0.1391,-0.1411,-0.1424,-0.144,-0.1518,-0.1486,-0.1493,-0.1506,-0.1581,-0.1597,-0.1602,-0.1625,-0.1641,-0.1643,-0.1645,-0.1646,-0.1773,-0.1775,0,0,0,0,0,0,-0.1247,-0.1266,-0.1368,-0.1375,-0.1334,-0.1412,-0.1427,-0.1447,-0.1518,-0.1531,-0.1505,-0.151,-0.1593,-0.16,-0.1606,-0.1702,-0.1644,-0.1646,-0.1647,-0.1771,-0.1773,-0.1775,0,0,0,0,0,0,-0.1244,-0.1255,-0.1364,-0.1323,-0.1339,-0.1413,-0.1435,-0.1448,-0.1492,-0.1533,-0.1545,-0.1538,-0.1594,-0.1603,-0.1659,-0.1702,-0.1647,-0.1649,-0.1768,-0.1771,-0.1774,-0.182,0,0,0,0,0,0,-0.1239,-0.1254,-0.127,-0.1322,-0.134,-0.1412,-0.1434,-0.1449,-0.1496,-0.1505,-0.1564,-0.1573,-0.1596,-0.1656,-0.1661,-0.1704,-0.1651,-0.1766,-0.177,-0.1773,-0.1816,-0.1824,-0.1831,0,0,0,0,0,-0.1234,-0.1255,-0.127,-0.1283,-0.1359,-0.1413,-0.1424,-0.1481,-0.1496,-0.1524,-0.157,-0.1573,-0.1684,-0.1659,-0.1665,-0.1709,-0.1764,-0.1768,-0.1773,-0.1813,-0.1823,-0.1831,0,0,0,0,0,0,-0.1205,-0.1268,-0.1286,-0.1325,-0.1373,-0.1429,-0.1458,-0.1487,-0.1543,-0.1552,-0.1589,-0.1602,-0.1671,-0.1679,-0.165,-0.1759,-0.1728,-0.1734,-0.1756,-0.1766,-0.1773,-0.1764,-0.1653,0,0,0,0,0,-0.1202,-0.1234,-0.1293,-0.1323,-0.1348,-0.1401,-0.1431,-0.1466,-0.1517,-0.1544,-0.1592,-0.164,-0.1688,-0.1718,-0.1757,-0.1803,-0.1784,-0.184,-0.1848,-0.1855,-0.1853,-0.186,-0.1868,-0.179,-0.179,-0.179,0,0,-0.1197,-0.1234,-0.1254,-0.1319,-0.1357,-0.1413,-0.1425,-0.1473,-0.153,-0.1541,-0.1635,-0.1664,-0.1706,-0.1776,-0.1807,-0.1792,-0.1867,-0.186,-0.1865,-0.1861,-0.1866,-0.1873,-0.1879,-0.1793,-0.1793,-0.1792,0,0,-0.12,-0.1238,-0.1269,-0.1316,-0.1377,-0.142,-0.1438,-0.1509,-0.1555,-0.163,-0.1661,-0.1713,-0.1792,-0.1834,-0.1862,-0.1928,-0.1905,-0.1951,-0.1985,-0.1992,-0.1998,-0.2002,-0.1978,-0.198,-0.1957,-0.1957,-0.1957,0,-0.1194,-0.1245,-0.1285,-0.1332,-0.1384,-0.1429,-0.1486,-0.1536,-0.1621,-0.1657,-0.1672,-0.1788,-0.1821,-0.1899,-0.1936,-0.1946,-0.1933,-0.1944,-0.1999,-0.2004,-0.2008,-0.1982,-0.1984,-0.196,-0.1959,-0.1959,-0.1959,0,-0.1219,-0.1277,-0.13,-0.1385,-0.1442,-0.1494,-0.1573,-0.1631,-0.1687,-0.1734,-0.1821,-0.1865,-0.193,-0.1959,-0.1974,-0.2032,-0.2006,-0.2003,-0.1968,-0.2018,-0.1988,-0.1989,-0.1964,-0.1963,-0.1962,-0.1961,0,0,-0.1172,-0.1297,-0.1307,-0.1369,-0.1479,-0.153,-0.1624,-0.1718,-0.1771,-0.1847,-0.1915,-0.2002,-0.2006,-0.2037,-0.2057,-0.2072,-0.2091,-0.2056,-0.2055,-0.2017,-0.2085,-0.1936,-0.1922,-0.2097,-0.2097,-0.2098,-0.2048,0,-0.1187,-0.1284,-0.1349,-0.1465,-0.1535,-0.1619,-0.1703,-0.1788,-0.1856,-0.1929,-0.1969,-0.2036,-0.2043,-0.2069,-0.209,-0.2096,-0.2098,-0.2103,-0.2055,-0.2053,-0.1902,-0.192,-0.2101,-0.2048,-0.2048,-0.2048,-0.2048,0,-0.1187,-0.1267,-0.1374,-0.1528,-0.1564,-0.1642,-0.1778,-0.1854,-0.1948,-0.1992,-0.2048,-0.2074,-0.2124,-0.2111,-0.2131,-0.2134,-0.2114,-0.2105,-0.2103,-0.1946,-0.1905,-0.1993,-0.2049,-0.2049,-0.2049,-0.2049,-0.2049,0,-0.113,-0.1285,-0.1376,-0.143,-0.16,-0.167,-0.1761,-0.1872,-0.1927,-0.2021,-0.2049,-0.2111,-0.2131,-0.2136,-0.2124,-0.2132,-0.2114,-0.2118,-0.1959,-0.1947,-0.2076,-0.2071,-0.2114,-0.2114,-0.2114,-0.2114,-0.2114,0,-0.1111,-0.1188,-0.1365,-0.1415,-0.1537,-0.1658,-0.1761,-0.1849,-0.1942,-0.1985,-0.2065,-0.2082,-0.2139,-0.2136,-0.2125,-0.2029,-0.2111,-0.1953,-0.1924,-0.2096,-0.2095,-0.2075,-0.2071,-0.2112,-0.2112,-0.2113,-0.2113,0,-0.1021,-0.1131,-0.1253,-0.1445,-0.151,-0.1593,-0.1757,-0.181,-0.1908,-0.196,-0.1985,-0.2061,-0.2045,-0.2065,-0.2059,-0.1998,-0.1947,-0.1892,-0.2053,-0.2037,-0.1773,-0.1773,-0.1702,-0.1696,-0.1691,-0.1687,-0.1684,0,-0.0982,-0.1032,-0.1245,-0.1322,-0.1415,-0.1553,-0.1631,-0.1773,-0.1816,-0.1922,-0.1923,-0.1949,-0.1977,-0.1833,-0.1885,-0.1824,-0.1807,-0.1767,-0.1789,-0.1751,-0.1732,-0.1739,-0.1745,-0.1676,-0.1675,-0.1674,-0.1673,0,-0.0913,-0.0986,-0.1089,-0.1242,-0.1355,-0.146,-0.1582,-0.1595,-0.1725,-0.1826,-0.1794,-0.1773,-0.1741,-0.1723,-0.1677,-0.1648,-0.1793,-0.1717,-0.1727,-0.1747,-0.172,-0.1707,-0.1718,-0.1656,-0.1658,-0.166,-0.1661,0,-0.0853,-0.0902,-0.1032,-0.1162,-0.1285,-0.1339,-0.142,-0.1472,-0.1523,-0.1639,-0.1622,-0.1652,-0.1717,-0.1629,-0.1599,-0.1542,-0.1522,-0.1482,-0.1504,-0.1523,-0.1489,-0.1431,-0.124,0,0,0,0,0,-0.0794,-0.0838,-0.0949,-0.1079,-0.1184,-0.1249,-0.1376,-0.1446,-0.1563,-0.1489,-0.1549,-0.1511,-0.1451,-0.1477,-0.1377,-0.1521,-0.1535,-0.14,-0.1503,-0.1563,-0.1583,-0.156,0,0,0,0,0,0,-0.076,-0.0839,-0.091,-0.0974,-0.1027,-0.1119,-0.1184,-0.1267,-0.1239,-0.1354,-0.1323,-0.1407,-0.1367,-0.1465,-0.1337,-0.1343,-0.1374,-0.143,-0.1425,-0.1552,-0.157,-0.1585,-0.1569,0,0,0,0,0]},{"header":{"parameterUnit":"m.s-1","parameterCategory":2,"la1":30.2991,"la2":30.254,"lo1":-89.0895,"lo2":-89.0444,"dy":0.0017,"dx":0.0017,"nx":28,"ny":28,"refTime":"2024-08-28T03:00:00:Z","depth":"4","parameterNumber":3,"parameterNumberName":"V-component_of_CURRENTS"},"data":[0,0,0,0,0,0,0,0,0,0,0,0,0,0,0,0,0,0,0,0,0,0,0,0,0,0,0,0,0,0,0,0,0,0,0,0,0,0,0,0,0,0,0,0,0,0,0,0,0,0,0,0,0,0,0,0,0,0,-0.0189,-0.0189,0,-0.0148,-0.0147,-0.0146,-0.01,-0.0099,-0.0099,-0.0099,-0.0003,-0.0001,0.0001,0,0,0,0,0,0,0,0,0,0,0,0,0,-0.0169,-0.0169,-0.0189,-0.0189,-0.0188,-0.0148,-0.0147,-0.0146,-0.01,-0.0099,-0.0099,-0.0098,-0.0003,-0.0001,0.0002,0,0,0,0,0,0,0,0,0,0,0,0,0,-0.0156,-0.017,-0.0189,-0.0162,-0.0159,-0.0148,-0.0147,-0.0146,-0.01,-0.0099,-0.0099,-0.0098,-0.0004,-0.0001,0.0002,0.0007,0,0,0.0012,0.0013,0,0,0,0,0,0,0,0,-0.0156,-0.0156,-0.0166,-0.0164,-0.0161,-0.013,-0.0105,-0.0093,-0.01,-0.012,-0.0098,-0.0098,-0.0042,-0.0036,-0.0027,0.0011,0.0015,0.0012,0.0014,0.0015,0.0016,0,0,0,0,0,0,0,-0.0157,-0.0157,-0.017,-0.0166,-0.0163,-0.0132,-0.0129,-0.0102,-0.0083,-0.0119,-0.0116,-0.0115,-0.004,-0.0031,-0.0025,0.0017,0.0012,0.0015,0.0017,0.0018,0.0098,0.0098,0,0,0,0,0,0,-0.0171,-0.0159,-0.0172,-0.0169,-0.0159,-0.0133,-0.013,-0.0139,-0.0085,-0.0077,-0.0115,-0.0113,-0.0036,-0.0028,-0.0021,0.0007,0.0015,0.0018,0.002,0.0097,0.0098,0.0098,0,0,0,0,0,0,-0.0171,-0.0173,-0.0174,-0.0164,-0.0162,-0.0135,-0.0144,-0.0139,-0.0129,-0.0083,-0.0073,-0.0112,-0.0035,-0.0025,0.0002,0.0011,0.002,0.0022,0.0097,0.0097,0.0098,0.0052,0,0,0,0,0,0,-0.0171,-0.0173,-0.0181,-0.0165,-0.0163,-0.0174,-0.0145,-0.0138,-0.013,-0.0126,-0.0077,-0.0067,-0.0034,-0.0003,0.0005,0.0015,0.0025,0.0097,0.0097,0.0098,0.0053,0.005,0.0048,0,0,0,0,0,-0.017,-0.0187,-0.0182,-0.0183,-0.0176,-0.0175,-0.0171,-0.0147,-0.0131,-0.0133,-0.0097,-0.0069,0.0006,-0.0001,0.0009,0.002,0.0097,0.0097,0.0098,0.0054,0.0051,0.0048,0,0,0,0,0,0,-0.0179,-0.0183,-0.0177,-0.0194,-0.0188,-0.0168,-0.0168,-0.0153,-0.0127,-0.0119,-0.0072,-0.0061,-0.0032,-0.0002,-0.0011,0.0045,0.0059,0.0061,0.0022,0.002,0.0018,0.0006,0.0027,0,0,0,0,0,-0.0187,-0.0202,-0.0197,-0.021,-0.021,-0.019,-0.0185,-0.0172,-0.0149,-0.0137,-0.0102,-0.006,-0.0023,-0.0001,0.0031,0.0057,0.0086,0.0074,0.0072,0.0069,0.0067,0.0115,0.0117,0.01,0.01,0.01,0,0,-0.0195,-0.0198,-0.0207,-0.0213,-0.0205,-0.0208,-0.0185,-0.0185,-0.0177,-0.0131,-0.0106,-0.0072,-0.002,0.0011,0.0028,0.0038,0.0088,0.007,0.0068,0.0067,0.0116,0.0117,0.0119,0.01,0.01,0.01,0,0,-0.0221,-0.0222,-0.0243,-0.0241,-0.0239,-0.0224,-0.0228,-0.0212,-0.0194,-0.0175,-0.0132,-0.0097,-0.0047,-0.0004,0.0025,0.0029,0.0069,0.0042,0.0028,0.0074,0.0076,0.0078,0.0108,0.0113,0.0047,0.0047,0.0047,0,-0.0228,-0.0254,-0.0248,-0.0263,-0.0261,-0.0235,-0.0249,-0.0227,-0.0201,-0.0185,-0.0173,-0.0092,-0.0051,0.0,0.0005,0.0024,0.005,0.0032,0.007,0.0073,0.0076,0.0106,0.0112,0.0045,0.0045,0.0046,0.0046,0,-0.0267,-0.0284,-0.0295,-0.0304,-0.0299,-0.0308,-0.0283,-0.0269,-0.0244,-0.0218,-0.0175,-0.0121,-0.0072,-0.0048,-0.0019,0.0025,0.0036,0.0055,0.0074,0.0074,0.0107,0.0114,0.0042,0.0043,0.0043,0.0044,0,0,-0.0291,-0.032,-0.0322,-0.0334,-0.0322,-0.0325,-0.0307,-0.0287,-0.0274,-0.0234,-0.021,-0.0141,-0.0114,-0.0079,-0.0034,0.0012,0.0052,0.0038,0.0042,0.0061,0.0143,0.0137,0.0144,0.0078,0.0079,0.008,0.0155,0,-0.0322,-0.037,-0.0364,-0.0387,-0.0405,-0.0372,-0.0358,-0.033,-0.0296,-0.0266,-0.0199,-0.0163,-0.0123,-0.0102,-0.0049,0.0028,0.007,0.0029,0.0146,0.0149,0.0138,0.0152,0.0083,0.016,0.0162,0.0163,0.0164,0,-0.0357,-0.0384,-0.0428,-0.0436,-0.0439,-0.0443,-0.0417,-0.0402,-0.0345,-0.0317,-0.0265,-0.0216,-0.014,-0.0113,0.0019,-0.001,0.0059,0.0118,0.0122,0.0138,0.0157,0.0164,0.0177,0.0176,0.0175,0.0174,0.0174,0,-0.0387,-0.0421,-0.046,-0.0465,-0.0471,-0.0474,-0.0467,-0.0424,-0.0411,-0.0354,-0.0336,-0.0243,-0.0197,-0.0095,0.0028,0.0025,0.0168,0.0181,0.0238,0.0238,0.0241,0.0238,0.0267,0.0266,0.0266,0.0266,0.0266,0,-0.0416,-0.0445,-0.0484,-0.0505,-0.0539,-0.052,-0.0532,-0.0508,-0.047,-0.0453,-0.0372,-0.0333,-0.019,-0.009,0.0018,0.0151,0.0164,0.0237,0.0261,0.0218,0.0213,0.0245,0.0242,0.0269,0.0268,0.0268,0.0267,0,-0.0438,-0.0468,-0.0517,-0.0548,-0.0562,-0.0585,-0.0592,-0.0592,-0.055,-0.0524,-0.0509,-0.0394,-0.0259,-0.0116,0.0056,0.0133,0.0262,0.0304,0.0239,0.0258,0.0301,0.0294,0.0371,0.0371,0.0372,0.0372,0.0372,0,-0.0452,-0.0487,-0.056,-0.0599,-0.0619,-0.0651,-0.0669,-0.0641,-0.0632,-0.0554,-0.0539,-0.0415,-0.0324,-0.008,0.0062,0.026,0.0287,0.034,0.0328,0.0297,0.0314,0.0306,0.0299,0.0373,0.0373,0.0373,0.0373,0,-0.0474,-0.0513,-0.0559,-0.0648,-0.0693,-0.0727,-0.0745,-0.0741,-0.0691,-0.0659,-0.0543,-0.0411,-0.026,-0.0076,0.0077,0.0219,0.03,0.0345,0.0345,0.0334,0.0301,0.0315,0.0308,0.0375,0.0375,0.0374,0.0374,0,-0.0486,-0.0535,-0.0614,-0.0684,-0.0747,-0.0779,-0.0784,-0.0749,-0.0726,-0.0625,-0.0588,-0.0412,-0.0307,-0.0097,0.0046,0.0183,0.0213,0.0246,0.0252,0.0252,0.0194,0.0133,0.0179,0,0,0,0,0,-0.0489,-0.0558,-0.0639,-0.072,-0.0781,-0.0809,-0.0821,-0.0806,-0.0759,-0.0679,-0.0624,-0.0473,-0.024,-0.0137,0.0001,0.0032,0.0215,0.0194,0.0249,0.0383,0.0381,0.0333,0,0,0,0,0,0,-0.0496,-0.0581,-0.0644,-0.0733,-0.0782,-0.0836,-0.084,-0.0809,-0.0744,-0.0677,-0.0545,-0.0459,-0.023,-0.0317,-0.0002,0.0039,0.0088,0.0309,0.0312,0.0384,0.0382,0.0381,0.0331,0,0,0,0,0]}]]